Weather History for Pocatello, ID

Change the Weather History Date:

Thursday, November 1, 2012

  Actual Average Record
Temperature  
Mean Temperature 50 °F 41 °F  
Max Temperature 63 °F 53 °F 71 °F (1965)
Min Temperature 37 °F 29 °F 8 °F (1991)
Degree Days  
Heating Degree Days 15 24  
Month to date heating degree days 15 24  
Since 1 July heating degree days 713 831  
Cooling Degree Days 0 0  
Month to date cooling degree days 0 0  
Year to date cooling degree days 560 392  
Growing Degree Days 3 (Base 50)    
Moisture  
Dew Point 31 °F    
Average Humidity 46    
Maximum Humidity 70    
Minimum Humidity 21    
Precipitation  
Precipitation 0.00 in 0.03 in 0.32 in (1991)
Month to date precipitation 0.00 0.03  
Year to date precipitation 7.59 9.81  
Snow  
Snow 0.00 in - - ()
Month to date snowfall 0.0  
Since 1 July snowfall 2.2  
Since 1 September snowfall 2.2  
Snow Depth 0.00 in    
Sea Level Pressure  
Sea Level Pressure 29.93 in    
Wind  
Wind Speed 10 mph (SW)    
Max Wind Speed 22 mph    
Max Gust Speed 25 mph    
Visibility 10 miles    
Events      
T = Trace of Precipitation, MM = Missing Value Source: NWS Daily Summary

Daily Weather History Graph

Daily Weather History Graph

Search for Another Location

Airport:

Trip Planner

Search our weather history database for the weather conditions in past years. The results will help you decide how hot, cold, wet, or windy it might be!

Date:

Astronomy

Nov. 01, 2012 Rise Set
Actual Time 8:05 AM MDT 6:21 PM MDT
Civil Twilight 7:35 AM MDT 6:51 PM MDT
Nautical Twilight 7:02 AM MDT 7:24 PM MDT
Astronomical Twilight 6:29 AM MDT 7:57 PM MDT
Moon 8:18 PM MDT (11/1) 10:44 AM MDT (11/1)
Length of Visible Light 11h 15m
Length of Day
10h 16m
Waning Gibbous, 92% of the Moon is Illuminated
Nov 1
Waning Gibbous
Nov 6
Last Quarter
Nov 13
New
Nov 20
First Quarter
Nov 28
Full

Hourly Weather History & Observations

Time (MDT) Temp. Windchill Dew Point Humidity Pressure Visibility Wind Dir Wind Speed Gust Speed Precip Events Conditions
12:53 AM 63.0 °F - 23.0 °F 22% 29.81 in 10.0 mi South 15.0 mph 24.2 mph N/A   Clear
1:53 AM 48.0 °F - 28.9 °F 48% 29.83 in 10.0 mi Variable 3.5 mph - N/A   Clear
2:53 AM 45.0 °F 42.6 °F 28.9 °F 53% 29.82 in 10.0 mi NE 4.6 mph - N/A   Clear
3:53 AM 46.9 °F - 30.9 °F 54% 29.82 in 10.0 mi WNW 12.7 mph 17.3 mph N/A   Clear
4:16 AM 55.4 °F - 26.6 °F 33% 29.92 in 10.0 mi SW 18.4 mph - N/A   Clear
4:53 AM 55.0 °F - 27.0 °F 34% 29.82 in 10.0 mi SSW 12.7 mph - N/A   Clear
5:53 AM 55.9 °F - 26.1 °F 32% 29.83 in 10.0 mi SSW 9.2 mph - N/A   Clear
6:53 AM 55.4 °F - 24.8 °F 31% 29.96 in 10.0 mi SW 13.8 mph 18.4 mph N/A   Clear
7:53 AM 52.0 °F - 26.1 °F 37% 29.92 in 10.0 mi SSW 9.2 mph - N/A   Clear
8:53 AM 52.0 °F - 28.0 °F 40% 29.93 in 10.0 mi SSW 6.9 mph - N/A   Clear
9:53 AM 57.0 °F - 28.0 °F 33% 29.91 in 10.0 mi SSW 8.1 mph - N/A   Scattered Clouds
10:53 AM 57.0 °F - 28.9 °F 34% 29.91 in 10.0 mi WSW 8.1 mph - N/A   Mostly Cloudy
11:53 AM 55.0 °F - 32.0 °F 42% 29.94 in 10.0 mi West 19.6 mph - N/A   Mostly Cloudy
12:53 PM 57.0 °F - 34.0 °F 42% 29.95 in 10.0 mi West 18.4 mph 24.2 mph N/A   Scattered Clouds
1:53 PM 53.1 °F - 35.1 °F 50% 29.99 in 10.0 mi West 15.0 mph - N/A   Mostly Cloudy
2:53 PM 54.0 °F - 35.1 °F 49% 29.99 in 10.0 mi SSW 15.0 mph 18.4 mph N/A   Mostly Cloudy
3:53 PM 54.0 °F - 35.1 °F 49% 29.96 in 10.0 mi SSW 11.5 mph - N/A   Mostly Cloudy
4:53 PM 54.0 °F - 35.1 °F 49% 29.95 in 10.0 mi West 10.4 mph - N/A   Mostly Cloudy
5:53 PM 53.1 °F - 35.1 °F 50% 29.95 in 10.0 mi SW 6.9 mph - N/A   Mostly Cloudy
6:53 PM 48.9 °F - 34.0 °F 56% 29.97 in 10.0 mi SSW 6.9 mph - N/A   Mostly Cloudy
7:53 PM 46.9 °F - 33.1 °F 59% 29.99 in 10.0 mi SSW 8.1 mph - N/A   Clear
8:53 PM 46.9 °F - 33.1 °F 59% 30.00 in 10.0 mi SSW 8.1 mph - N/A   Partly Cloudy
9:53 PM 48.9 °F - 33.1 °F 54% 30.00 in 10.0 mi SW 9.2 mph - N/A   Overcast
10:53 PM 46.0 °F 41.9 °F 33.1 °F 61% 30.02 in 10.0 mi SSW 8.1 mph - N/A   Scattered Clouds
11:53 PM 42.1 °F 37.7 °F 33.1 °F 70% 30.04 in 10.0 mi SW 6.9 mph - N/A   Clear